| time (UTC) | temp C | wind direction | speed KPH | gust KPH | rain 1hr cm | rain 24hr cm | rain mn cm | humidity % | barometer mb |
| 20260505101542 | 11 | 120 | 1.6 | 4.8 | 0.00 | 0.00 | 0.00 | 86 | 989.4 |
| 20260505100049 | 11 | 91 | 0.0 | 4.8 | 0.00 | 0.00 | 0.00 | 86 | 989.5 |
| 20260505094540 | 11 | 90 | 0.0 | 1.6 | 0.00 | 0.00 | 0.00 | 85 | 989.3 |
| 20260505093039 | 11 | 97 | 0.0 | 3.2 | 0.00 | 0.00 | 0.00 | 85 | 989.3 |
| 20260505091551 | 11 | 179 | 0.0 | 1.6 | 0.00 | 0.00 | 0.00 | 84 | 989.3 |
| 20260505090050 | 11 | 198 | 0.0 | 1.6 | 0.00 | 0.00 | 0.00 | 84 | 989.2 |
| 20260505084537 | 11 | 96 | 0.0 | 1.6 | 0.00 | 0.00 | 0.00 | 82 | 989.1 |
| 20260505083041 | 11 | 122 | 0.0 | 3.2 | 0.00 | 0.00 | 0.00 | 82 | 989.0 |
| 20260505081549 | 11 | 121 | 0.0 | 0.0 | 0.00 | 0.00 | 0.00 | 81 | 988.8 |
| 20260505080039 | 12 | 122 | 0.0 | 1.6 | 0.00 | 0.00 | 0.00 | 78 | 988.6 |
| 20260505074528 | 12 | 153 | 0.0 | 1.6 | 0.00 | 0.00 | 0.00 | 79 | 988.5 |
| 20260505073027 | 12 | 195 | 0.0 | 0.0 | 0.00 | 0.00 | 0.00 | 79 | 988.3 |
| 20260505071529 | 12 | 196 | 0.0 | 1.6 | 0.00 | 0.00 | 0.00 | 77 | 988.2 |
| 20260505070027 | 12 | 175 | 0.0 | 4.8 | 0.00 | 0.00 | 0.00 | 76 | 988.0 |
| 20260505064523 | 12 | 227 | 0.0 | 6.4 | 0.00 | 0.00 | 0.00 | 75 | 987.9 |
| 20260505063028 | 13 | 231 | 0.0 | 8.0 | 0.00 | 0.00 | 0.00 | 74 | 987.8 |
| 20260505061529 | 13 | 240 | 1.6 | 6.4 | 0.00 | 0.00 | 0.00 | 73 | 987.8 |
| 20260505060017 | 13 | 249 | 0.0 | 4.8 | 0.00 | 0.00 | 0.00 | 73 | 987.7 |
| 20260505054522 | 13 | 226 | 0.0 | 8.0 | 0.00 | 0.00 | 0.00 | 73 | 987.5 |
| 20260505053014 | 13 | 274 | 3.2 | 9.7 | 0.00 | 0.00 | 0.00 | 75 | 987.5 |
| 20260505051512 | 13 | 250 | 1.6 | 12.9 | 0.00 | 0.00 | 0.00 | 75 | 987.3 |
| 20260505041507 | 13 | 233 | 4.8 | 11.3 | 0.00 | 0.00 | 0.00 | 75 | 986.8 |
| 20260505040007 | 14 | 248 | 1.6 | 9.7 | 0.00 | 0.00 | 0.00 | 72 | 986.7 |
| 20260505034504 | 13 | 344 | 4.8 | 11.3 | 0.00 | 0.00 | 0.00 | 71 | 986.6 |
| 20260505033003 | 13 | 309 | 4.8 | 8.0 | 0.00 | 0.00 | 0.00 | 74 | 986.6 |
| 20260505031501 | 13 | 260 | 3.2 | 14.5 | 0.00 | 0.00 | 0.00 | 76 | 986.7 |
| 20260505024610 | 13 | 232 | 1.6 | 8.0 | 0.00 | 0.00 | 0.00 | 78 | 986.6 |
| 20260505023059 | 13 | 278 | 4.8 | 9.7 | 0.00 | 0.00 | 0.00 | 78 | 986.7 |
| 20260505021612 | 13 | 330 | 3.2 | 12.9 | 0.00 | 0.00 | 0.00 | 81 | 986.9 |
| 20260505020055 | 13 | 255 | 3.2 | 11.3 | 0.00 | 0.00 | 0.00 | 81 | 987.0 |
| 20260505014555 | 13 | 249 | 4.8 | 14.5 | 0.00 | 0.00 | 0.00 | 81 | 987.1 |
| 20260505013057 | 12 | 319 | 3.2 | 9.7 | 0.00 | 0.00 | 0.00 | 81 | 987.0 |
| 20260505011556 | 13 | 316 | 6.4 | 12.9 | 0.00 | 0.00 | 0.00 | 82 | 987.1 |
| 20260505010050 | 13 | 261 | 1.6 | 9.7 | 0.00 | 0.00 | 0.00 | 82 | 986.9 |
| 20260505004548 | 12 | 323 | 1.6 | 12.9 | 0.00 | 0.00 | 0.00 | 86 | 986.9 |
| 20260505003044 | 12 | 212 | 6.4 | 16.1 | 0.00 | 0.00 | 0.00 | 86 | 986.8 |
| 20260505001542 | 12 | 283 | 1.6 | 12.9 | 0.00 | 0.00 | 0.00 | 90 | 986.7 |
| 20260505000042 | 11 | 209 | 4.8 | 9.7 | 0.00 | 0.00 | 0.00 | 94 | 986.6 |
| 20260504234537 | 11 | 307 | 3.2 | 4.8 | 0.00 | 0.00 | 0.00 | 96 | 986.6 |
| 20260504233050 | 11 | 299 | 0.0 | 0.0 | 0.00 | 0.00 | 0.00 | 96 | 986.6 |
| 20260504231534 | 11 | 113 | 0.0 | 0.0 | 0.00 | 0.00 | 0.00 | 96 | 986.5 |
| 20260504230034 | 10 | 113 | 0.0 | 0.0 | 0.00 | 0.00 | 0.00 | 96 | 986.5 |
| 20260504224533 | 10 | 113 | 0.0 | 0.0 | 0.00 | 0.00 | 0.00 | 96 | 986.4 |
| 20260504223036 | 10 | 113 | 0.0 | 0.0 | 0.00 | 0.00 | 0.00 | 96 | 986.3 |
| 20260504221535 | 10 | 113 | 0.0 | 0.0 | 0.00 | 0.00 | 0.00 | 96 | 986.0 |
| 20260504220026 | 10 | 101 | 0.0 | 0.0 | 0.00 | 0.00 | 0.00 | 96 | 985.7 |
| 20260504214524 | 10 | 102 | 0.0 | 1.6 | 0.00 | 0.00 | 0.00 | 95 | 985.4 |
| 20260504213023 | 10 | 321 | 0.0 | 1.6 | 0.00 | 0.00 | 0.00 | 95 | 985.2 |
| 20260504211520 | 10 | 338 | 0.0 | 3.2 | 0.00 | 0.00 | 0.00 | 95 | 984.9 |
| 20260504210017 | 10 | 203 | 0.0 | 3.2 | 0.00 | 0.00 | 0.00 | 95 | 984.7 |
| 20260504204518 | 10 | 119 | 0.0 | 1.6 | 0.00 | 0.00 | 0.00 | 95 | 984.4 |
| 20260504203016 | 10 | 107 | 0.0 | 6.4 | 0.00 | 0.00 | 0.00 | 95 | 984.3 |
| 20260504201510 | 10 | 90 | 1.6 | 8.0 | 0.00 | 0.00 | 0.00 | 94 | 983.9 |
| 20260504200009 | 10 | 101 | 0.0 | 0.0 | 0.00 | 0.00 | 0.00 | 94 | 983.8 |
| 20260504194509 | 10 | 100 | 0.0 | 0.0 | 0.00 | 0.00 | 0.00 | 94 | 983.8 |
| 20260504193007 | 10 | 101 | 0.0 | 0.0 | 0.00 | 0.00 | 0.00 | 94 | 983.7 |
| 20260504191507 | 10 | 102 | 0.0 | 0.0 | 0.00 | 0.00 | 0.00 | 93 | 983.5 |
| 20260504190006 | 10 | 102 | 0.0 | 0.0 | 0.00 | 0.00 | 0.00 | 93 | 983.4 |
| 20260504184602 | 11 | 101 | 0.0 | 0.0 | 0.00 | 0.00 | 0.00 | 93 | 983.2 |
| 20260504183105 | 11 | 101 | 0.0 | 3.2 | 0.00 | 0.00 | 0.00 | 92 | 983.1 |
| 20260504181602 | 11 | 110 | 0.0 | 3.2 | 0.00 | 0.00 | 0.00 | 92 | 983.0 |
| 20260504180057 | 11 | 93 | 0.0 | 4.8 | 0.00 | 0.00 | 0.00 | 92 | 982.9 |
| 20260504174555 | 11 | 172 | 0.0 | 1.6 | 0.00 | 0.00 | 0.00 | 93 | 982.8 |
| 20260504173153 | 11 | 188 | 1.6 | 4.8 | 0.00 | 0.00 | 0.00 | 92 | 982.8 |
| 20260504171556 | 11 | 60 | 0.0 | 4.8 | 0.00 | 0.00 | 0.00 | 91 | 982.6 |